Location: Eschertshofen
(49.3064°N, 11.5756°E)
Time: 19:50:10
(UTC+00:00)

Cosmos 1125 Rocket - Visible Passes

Search period start: 26 January 2021 00:00
Search period end: 05 February 2021 00:00
Orbit: 757 x 780 km, 74.0° (Epoch: 25 January)

Date Brightness Start Highest point End Pass type
(mag) Time Alt. Az. Time Alt. Az. Time Alt. Az.
26 Jan 4.9 03:57:17 18° N 04:00:43 36° ENE 04:05:37 10° ESE visible
26 Jan 4.0 05:37:55 10° NW 05:42:50 39° WSW 05:47:44 10° S visible
26 Jan 5.7 18:37:30 10° S 18:37:52 12° S 18:37:52 12° S visible
27 Jan 5.5 03:21:33 20° NNE 03:23:34 25° NE 03:27:56 10° ESE visible
27 Jan 3.5 05:01:52 16° NNW 05:06:06 63° WSW 05:11:20 10° S visible
27 Jan 5.1 18:01:25 10° SSE 18:03:06 18° SE 18:03:06 18° SE visible
27 Jan 5.8 19:42:27 10° SW 19:43:28 16° SW 19:43:28 16° SW visible
28 Jan 5.9 02:45:55 18° NE 02:46:19 18° NE 02:49:52 10° E visible
28 Jan 3.5 04:26:14 27° NNW 04:29:15 84° ENE 04:34:35 10° SSE visible
28 Jan 5.1 06:07:30 10° WNW 06:10:35 16° W 06:13:41 10° SW visible
28 Jan 5.0 17:25:55 10° SE 17:28:19 16° ESE 17:28:19 16° ESE visible
28 Jan 4.4 19:05:20 10° SSW 19:08:41 41° SW 19:08:41 41° SW visible
29 Jan 6.5 02:10:25 12° NE 02:10:25 12° NE 02:11:16 10° ENE visible
29 Jan 4.1 03:50:45 40° N 03:52:19 54° ENE 03:57:31 10° SE visible
29 Jan 4.5 05:31:04 16° NW 05:34:02 25° W 05:38:19 10° SSW visible
29 Jan 3.4 18:28:31 10° S 18:33:42 68° ESE 18:33:51 67° E visible
29 Jan 5.9 20:12:08 10° WSW 20:14:13 19° W 20:14:13 19° W visible
30 Jan 4.9 03:15:23 36° ENE 03:15:23 36° ENE 03:20:09 10° ESE visible
30 Jan 3.9 04:55:44 31° WNW 04:57:23 40° WSW 05:02:18 10° S visible
30 Jan 3.8 17:52:02 10° S 17:56:57 42° ESE 17:58:56 30° ENE visible
30 Jan 5.0 19:34:23 10° WSW 19:39:07 34° NW 19:39:18 34° NW visible
31 Jan 5.8 02:40:11 20° E 02:40:11 20° E 02:42:27 10° ESE visible
31 Jan 3.4 04:20:32 63° W 04:20:38 63° WSW 04:25:53 10° S visible
31 Jan 4.4 17:15:58 10° SSE 17:20:17 27° E 17:23:55 13° NE visible
31 Jan 4.2 18:56:58 10° SW 19:02:03 51° WNW 19:04:16 31° N visible
31 Jan 6.4 20:43:32 10° WNW 20:44:37 11° NW 20:44:37 11° NW visible
01 Feb 4.2 03:45:29 45° SSE 03:45:29 45° SSE 03:49:07 10° SSE visible
01 Feb 5.1 05:25:50 16° WSW 05:25:50 16° WSW 05:28:17 10° SW visible
01 Feb 5.0 16:40:29 10° SE 16:43:43 17° E 16:46:58 10° NE visible
01 Feb 3.6 18:19:51 10° SSW 18:25:06 79° WNW 18:29:05 18° NNE visible
01 Feb 6.0 20:04:46 10° W 20:08:07 17° NW 20:09:26 15° NNW visible
02 Feb 5.6 03:10:33 19° SE 03:10:33 19° SE 03:12:03 10° SE visible
02 Feb 5.0 04:50:55 19° SW 04:50:55 19° SW 04:52:53 10° SSW visible
02 Feb 3.4 17:43:03 10° S 17:48:14 67° ESE 17:53:30 10° NNE visible
02 Feb 5.6 19:26:38 10° WSW 19:30:50 24° NW 19:34:06 14° N visible
03 Feb 5.6 04:16:05 14° SSW 04:16:05 14° SSW 04:16:52 10° S visible
03 Feb 3.9 17:06:35 10° S 17:11:29 42° ESE 17:16:26 10° NE visible
03 Feb 5.0 18:48:54 10° WSW 18:53:40 34° NW 18:58:29 10° N visible
04 Feb 4.3 18:11:29 10° SW 18:16:36 51° WNW 18:21:47 10° NNE visible
04 Feb 6.3 19:58:00 10° WNW 20:00:02 12° NW 20:02:04 10° NNW visible
